Tracking 31027 objects as of 19-Jul-2025
HD Live streaming from Space Station
objects crossing your sky now

STARLINK-30593

Track STARLINK-30593 now!
10-day predictions
STARLINK-30593 is classified as:


NORAD ID: 58112
Int'l Code: 2023-161R
Perigee: 481.6 km
Apogee: 483.1 km
Inclination: 53.2 °
Period: 94.1 minutes
Semi major axis: 6853 km
RCS: Unknown
Launch date: October 21, 2023
Source: United States (US)
Launch site: AIR FORCE WESTERN TEST RANGE (AFWTR)
Your satellite tracking list
IRIDIUM 33 DEB
Track 1 satellite(s)




NASA's NSSDC Master Catalog

Two Line Element Set (TLE):
1 58112U 23161R   25199.95099588 -.00000213  00000-0  49391-5 0  9997
2 58112  53.1586 171.3307 0001066  91.1699 268.9423 15.30192265 98631
Source of the keplerian elements: AFSPC